FW2996 Weather Reports


Display with metric or nautical units.
time (UTC)temp
F
wind
direction
speed
MPH
gust
MPH
rain 1hr
in
rain 24hr
in
rain mn
in
humidity
%
barometer
mb
20260904154607 82 226 2.0 7.0 0.00 0.00 0.00 82 1056.8
20260904154057 82 177 4.0 7.0 0.00 0.00 0.00 82 1056.6
20260904153556 82 169 3.0 6.0 0.00 0.00 0.00 82 1056.7
20260904153053 82 220 2.0 6.0 0.00 0.00 0.00 84 1056.8
20260904152548 81 180 1.0 4.0 0.00 0.00 0.00 84 1056.7
20260904152043 81 257 1.0 3.0 0.00 0.00 0.00 85 1056.8
20260904151538 81 128 2.0 10.0 0.00 0.00 0.00 86 1056.8
20260904151037 81 216 4.0 4.0 0.00 0.00 0.00 86 1056.7
20260904150532 81 177 2.0 10.0 0.00 0.00 0.00 87 1056.8
20260904150027 80 144 2.0 6.0 0.00 0.00 0.00 87 1057.0
20260904145526 80 171 1.0 3.0 0.00 0.00 0.00 88 1057.2
20260904145022 80 180 1.0 2.0 0.00 0.00 0.00 88 1057.2
20260904144518 80 212 3.0 7.0 0.00 0.00 0.00 88 1057.0
20260904144014 80 128 1.0 3.0 0.00 0.00 0.00 89 1057.2
20260904143509 80 188 4.0 7.0 0.00 0.00 0.00 89 1057.0
20260904143006 80 189 3.0 7.0 0.00 0.00 0.00 90 1056.9
20260904142502 79 133 4.0 7.0 0.00 0.00 0.00 90 1057.0
20260904142002 79 155 2.0 6.0 0.00 0.00 0.00 91 1057.2
20260904141456 79 200 2.0 6.0 0.00 0.00 0.00 92 1056.8
20260904140953 78 146 4.0 6.0 0.00 0.00 0.00 92 1056.7
20260904140452 78 129 2.0 6.0 0.00 0.00 0.00 93 1056.8
20260904135951 78 133 4.0 4.0 0.00 0.00 0.00 93 1056.7
20260904135446 78 111 4.0 8.0 0.00 0.00 0.00 93 1056.8
20260904134942 78 163 0.0 6.0 0.00 0.00 0.00 93 1056.5
20260904134437 78 168 6.0 10.0 0.00 0.00 0.00 93 1056.5
20260904133931 78 131 1.0 3.0 0.00 0.00 0.00 94 1056.7
20260904133426 78 124 2.0 2.0 0.00 0.00 0.00 94 1056.7
20260904132922 78 165 2.0 4.0 0.00 0.00 0.00 94 1056.6
20260904132417 78 151 0.0 1.0 0.00 0.00 0.00 94 1056.7
20260904131916 78 128 2.0 4.0 0.00 0.00 0.00 94 1056.6
20260904131412 77 193 3.0 6.0 0.00 0.00 0.00 95 1056.6
20260904130908 77 153 4.0 6.0 0.00 0.00 0.00 95 1056.3
20260904130406 77 172 5.0 6.0 0.00 0.00 0.00 95 1056.4
20260904125901 77 151 6.0 9.0 0.00 0.00 0.00 95 1056.2
20260904125358 77 131 5.0 7.0 0.00 0.00 0.00 95 1056.2
20260904124857 77 182 6.0 8.0 0.00 0.00 0.00 95 1056.3
20260904124354 77 170 5.0 11.0 0.00 0.00 0.00 95 1056.0
20260904123848 77 136 5.0 7.0 0.00 0.00 0.00 96 1056.1
20260904123343 77 128 2.0 6.0 0.00 0.00 0.00 97 1056.0
20260904122838 77 136 3.0 8.0 0.00 0.00 0.00 97 1056.0
20260904122333 77 120 3.0 8.0 0.00 0.00 0.00 97 1056.0
20260904121827 77 157 2.0 3.0 0.00 0.00 0.00 97 1055.7
20260904121323 76 156 2.0 4.0 0.00 0.00 0.00 97 1055.7
20260904120820 77 163 2.0 3.0 0.00 0.00 0.00 97 1055.6
20260904120310 77 154 4.0 8.0 0.00 0.00 0.00 96 1055.3
20260904115804 77 113 2.0 8.0 0.00 0.00 0.00 95 1055.4
20260904115259 77 132 2.0 7.0 0.00 0.00 0.00 94 1055.5
20260904114749 77 136 2.0 7.0 0.00 0.00 0.00 94 1055.3
20260904114248 77 134 4.0 6.0 0.00 0.00 0.00 94 1055.4
20260904113744 77 134 1.0 6.0 0.00 0.00 0.00 94 1055.2
20260904113243 77 141 4.0 6.0 0.00 0.00 0.00 94 1055.2
20260904112737 77 131 3.0 4.0 0.00 0.00 0.00 94 1055.1
20260904112232 77 142 3.0 4.0 0.00 0.00 0.00 94 1055.1
20260904111723 77 129 2.0 4.0 0.00 0.00 0.00 94 1055.2
20260904111219 77 160 2.0 7.0 0.00 0.00 0.00 93 1055.1
20260904110714 77 137 1.0 3.0 0.00 0.00 0.00 93 1055.0
20260904110213 77 147 3.0 4.0 0.00 0.00 0.00 93 1055.0
20260904105708 77 83 4.0 7.0 0.00 0.00 0.00 93 1055.1
20260904105203 77 190 1.0 4.0 0.00 0.00 0.00 93 1054.9
20260904104658 77 158 2.0 6.0 0.00 0.00 0.00 93 1054.8
20260904104154 77 194 1.0 3.0 0.00 0.00 0.00 93 1054.7
20260904103650 77 208 3.0 4.0 0.00 0.00 0.00 93 1054.7
20260904103145 77 205 5.0 6.0 0.00 0.00 0.00 93 1054.6
20260904102641 77 210 4.0 6.0 0.00 0.00 0.00 93 1054.7
20260904102136 77 154 2.0 7.0 0.00 0.00 0.00 93 1054.8
20260904101633 78 160 2.0 4.0 0.00 0.00 0.00 93 1054.8
20260904101128 78 166 3.0 4.0 0.00 0.00 0.00 93 1054.9
20260904100624 78 180 4.0 6.0 0.00 0.00 0.00 93 1054.7
20260904100119 78 154 2.0 4.0 0.00 0.00 0.00 92 1054.7
20260904095614 78 131 2.0 4.0 0.00 0.00 0.00 92 1054.9
20260904095109 78 123 3.0 4.0 0.00 0.00 0.00 92 1054.8
20260904094609 78 164 1.0 7.0 0.00 0.00 0.00 92 1054.7
20260904094103 78 191 5.0 7.0 0.00 0.00 0.00 92 1054.5
20260904093600 78 194 3.0 8.0 0.00 0.00 0.00 92 1054.5
20260904093055 78 192 2.0 6.0 0.00 0.00 0.00 92 1054.6
20260904092551 78 200 3.0 4.0 0.00 0.00 0.00 92 1054.5
20260904092047 78 176 2.0 6.0 0.00 0.00 0.00 91 1054.6
20260904091543 78 165 2.0 2.0 0.00 0.00 0.00 91 1054.6
20260904091042 78 151 1.0 3.0 0.00 0.00 0.00 91 1054.7
20260904090538 78 159 1.0 4.0 0.00 0.00 0.00 91 1054.7
20260904090033 78 152 1.0 4.0 0.00 0.00 0.00 91 1054.6
20260904085528 78 182 2.0 4.0 0.00 0.00 0.00 90 1054.8
20260904085027 78 175 2.0 4.0 0.00 0.00 0.00 90 1054.9
20260904084523 78 191 1.0 3.0 0.00 0.00 0.00 90 1054.7
20260904084020 78 135 2.0 3.0 0.00 0.00 0.00 90 1054.5
20260904083515 78 185 5.0 7.0 0.00 0.00 0.00 90 1054.4
20260904083011 78 173 3.0 8.0 0.00 0.00 0.00 90 1054.5
20260904082506 78 217 5.0 7.0 0.00 0.00 0.00 90 1054.5
20260904082007 78 178 3.0 6.0 0.00 0.00 0.00 90 1054.5
20260904081502 78 188 3.0 4.0 0.00 0.00 0.00 90 1054.6
20260904080957 78 175 4.0 6.0 0.00 0.00 0.00 90 1054.5
20260904080453 78 168 3.0 6.0 0.00 0.00 0.00 89 1054.5
20260904075948 78 188 4.0 7.0 0.00 0.00 0.00 89 1054.5
20260904075444 78 162 5.0 7.0 0.00 0.00 0.00 89 1054.6
20260904074943 78 135 2.0 6.0 0.00 0.00 0.00 89 1054.6
20260904074439 78 152 4.0 9.0 0.00 0.00 0.00 89 1054.7
20260904073934 78 164 5.0 7.0 0.00 0.00 0.00 89 1054.7
20260904073429 78 199 5.0 7.0 0.00 0.00 0.00 89 1054.9
20260904072925 78 154 2.0 8.0 0.00 0.00 0.00 89 1054.9
20260904072420 78 182 3.0 8.0 0.00 0.00 0.00 89 1054.8
20260904071915 78 159 1.0 4.0 0.00 0.00 0.00 89 1054.8
20260904071411 78 173 7.0 9.0 0.00 0.00 0.00 89 1054.9
20260904070905 78 197 4.0 10.0 0.00 0.00 0.00 88 1054.9
20260904070404 78 189 2.0 9.0 0.00 0.00 0.00 88 1055.0
20260904065904 78 151 2.0 9.0 0.00 0.00 0.00 88 1055.1
20260904065400 78 136 5.0 8.0 0.00 0.00 0.00 88 1054.9
20260904064900 79 187 3.0 6.0 0.00 0.00 0.00 88 1055.1
20260904064357 79 172 2.0 8.0 0.00 0.00 0.00 88 1055.0
20260904063852 79 180 6.0 13.0 0.00 0.00 0.00 88 1055.0
20260904063348 79 204 3.0 9.0 0.00 0.00 0.00 87 1055.0
20260904062843 78 174 5.0 9.0 0.00 0.00 0.00 87 1055.0
20260904062339 78 176 4.0 10.0 0.00 0.00 0.00 87 1055.2
20260904061835 78 141 3.0 9.0 0.00 0.00 0.00 87 1055.1
20260904061331 78 198 5.0 9.0 0.00 0.00 0.00 87 1055.2
20260904060827 78 153 2.0 10.0 0.00 0.00 0.00 86 1055.1
20260904060323 78 192 5.0 10.0 0.00 0.00 0.00 86 1055.2
20260904055818 78 171 4.0 7.0 0.00 0.00 0.00 85 1055.3
20260904055313 79 164 6.0 11.0 0.00 0.00 0.00 85 1055.0
20260904054808 78 155 5.0 13.0 0.00 0.00 0.00 85 1055.0
20260904054305 78 158 3.0 9.0 0.00 0.00 0.00 84 1055.2
20260904053759 79 165 5.0 11.0 0.00 0.00 0.00 84 1055.1
20260904053259 79 152 4.0 10.0 0.00 0.00 0.00 84 1055.0
20260904052755 79 166 4.0 7.0 0.00 0.00 0.00 84 1054.8
20260904052251 79 166 7.0 11.0 0.00 0.00 0.00 84 1054.9
20260904051748 79 123 4.0 8.0 0.00 0.00 0.00 83 1054.8
20260904051243 79 174 5.0 9.0 0.00 0.00 0.00 83 1054.8
20260904050738 79 107 2.0 8.0 0.00 0.00 0.00 83 1054.6
20260904050234 79 185 3.0 7.0 0.00 0.00 0.00 83 1054.8
20260904045729 79 172 3.0 9.0 0.00 0.00 0.00 83 1054.8
20260904045224 79 144 4.0 8.0 0.00 0.00 0.00 83 1054.8
20260904044724 79 155 3.0 4.0 0.00 0.00 0.00 82 1054.8
20260904044215 79 140 5.0 10.0 0.00 0.00 0.00 82 1054.9
20260904043711 79 191 6.0 8.0 0.00 0.00 0.00 82 1054.8
20260904043207 79 133 8.0 10.0 0.00 0.00 0.00 82 1054.9
20260904042703 80 148 5.0 8.0 0.00 0.00 0.00 81 1054.9
20260904042159 80 135 3.0 7.0 0.00 0.00 0.00 81 1054.8
20260904041653 80 154 7.0 9.0 0.00 0.00 0.00 80 1054.9
20260904041150 80 180 5.0 7.0 0.00 0.00 0.00 80 1054.7
20260904040645 80 187 6.0 9.0 0.00 0.00 0.00 80 1054.6
20260904040141 80 153 4.0 10.0 0.00 0.00 0.00 79 1054.8
20260904035637 80 171 5.0 8.0 0.00 0.00 0.00 79 1054.7
20260904035136 80 147 3.0 4.0 0.00 0.00 0.00 79 1054.7
20260904034635 80 179 4.0 8.0 0.00 0.00 0.00 79 1054.7
20260904034131 81 157 4.0 8.0 0.00 0.00 0.00 78 1054.8
20260904033627 81 116 5.0 15.0 0.00 0.00 0.00 77 1054.7
20260904033124 81 184 8.0 14.0 0.00 0.00 0.00 77 1054.4
20260904032619 81 170 8.0 10.0 0.00 0.00 0.00 76 1054.5
20260904032118 81 130 5.0 13.0 0.00 0.00 0.00 76 1054.6
20260904031618 81 139 4.0 11.0 0.00 0.00 0.00 76 1054.5
20260904031114 81 144 9.0 16.0 0.00 0.00 0.00 75 1054.5
20260904030610 81 149 10.0 14.0 0.00 0.00 0.00 75 1054.5
20260904030104 81 139 7.0 11.0 0.00 0.00 0.00 75 1054.4
20260904025600 81 134 4.0 9.0 0.00 0.00 0.00 76 1054.2
20260904025055 81 151 3.0 8.0 0.00 0.00 0.00 76 1054.2
20260904024551 82 130 5.0 11.0 0.00 0.00 0.00 76 1054.2
20260904024046 82 140 6.0 8.0 0.00 0.00 0.00 76 1054.2
20260904023542 82 145 5.0 9.0 0.00 0.00 0.00 76 1054.1
20260904023038 82 134 3.0 10.0 0.00 0.00 0.00 76 1053.8
20260904022532 82 137 3.0 8.0 0.00 0.00 0.00 76 1053.9
20260904022029 82 147 6.0 10.0 0.00 0.00 0.00 76 1053.9
20260904021520 82 135 4.0 7.0 0.00 0.00 0.00 76 1053.9
20260904021014 82 114 5.0 9.0 0.00 0.00 0.00 75 1053.8
20260904020509 82 128 6.0 8.0 0.00 0.00 0.00 75 1053.8
20260904020008 82 135 6.0 7.0 0.00 0.00 0.00 74 1053.5
20260904015503 82 144 4.0 10.0 0.00 0.00 0.00 74 1053.5
20260904015001 82 115 6.0 11.0 0.00 0.00 0.00 74 1053.5
20260904014456 83 138 3.0 10.0 0.00 0.00 0.00 73 1053.4
20260904013952 83 134 5.0 10.0 0.00 0.00 0.00 73 1053.4
20260904013448 83 166 7.0 7.0 0.00 0.00 0.00 72 1053.3
20260904012945 83 182 6.0 10.0 0.00 0.00 0.00 72 1053.4
20260904012444 83 174 2.0 10.0 0.00 0.00 0.00 71 1053.3
20260904011939 84 119 8.0 13.0 0.00 0.00 0.00 71 1053.3
20260904011433 84 121 7.0 15.0 0.00 0.00 0.00 70 1053.1
20260904010929 84 177 7.0 9.0 0.00 0.00 0.00 69 1053.2
20260904010425 84 183 7.0 11.0 0.00 0.00 0.00 68 1053.0
20260904005919 85 156 10.0 14.0 0.00 0.00 0.00 68 1053.0
20260904005416 85 133 6.0 15.0 0.00 0.00 0.00 67 1053.1
20260904004915 85 116 9.0 13.0 0.00 0.00 0.00 67 1053.1
20260904004413 85 123 6.0 10.0 0.00 0.00 0.00 67 1053.2
20260904003912 85 129 9.0 11.0 0.00 0.00 0.00 67 1053.1
20260904003408 86 117 8.0 13.0 0.00 0.00 0.00 66 1053.3
20260904002903 86 127 7.0 13.0 0.00 0.00 0.00 66 1053.0
20260904002400 86 137 9.0 14.0 0.00 0.00 0.00 65 1053.0
20260904001858 86 115 6.0 15.0 0.00 0.00 0.00 65 1053.2
20260904001354 86 124 8.0 10.0 0.00 0.00 0.00 66 1053.1
20260904000849 86 118 8.0 10.0 0.00 0.00 0.00 66 1053.0
20260904000348 87 131 7.0 16.0 0.00 0.00 0.00 66 1053.1
20260903235848 87 154 4.0 10.0 0.00 0.00 0.00 65 1053.0
20260903235344 87 132 12.0 18.0 0.00 0.00 0.00 64 1053.0
20260903234843 88 143 11.0 13.0 0.00 0.00 0.00 65 1052.8
20260903234340 88 117 10.0 15.0 0.00 0.00 0.00 64 1052.7
20260903233836 88 106 6.0 16.0 0.00 0.00 0.00 65 1052.7
20260903233332 88 104 15.0 21.0 0.00 0.00 0.00 65 1052.6
20260903232831 89 118 14.0 19.0 0.00 0.00 0.00 62 1052.6
20260903232327 89 130 13.0 17.0 0.00 0.00 0.00 60 1052.8
20260903231826 90 127 11.0 22.0 0.00 0.00 0.00 59 1052.4
20260903231321 92 119 12.0 22.0 0.00 0.00 0.00 54 1052.4
20260903230817 92 143 7.0 15.0 0.00 0.00 0.00 52 1052.3
20260903230312 93 121 13.0 22.0 0.00 0.00 0.00 51 1052.3
20260903225808 93 147 14.0 16.0 0.00 0.00 0.00 51 1052.4
20260903225306 93 134 8.0 16.0 0.00 0.00 0.00 52 1052.2
20260903224800 93 178 10.0 18.0 0.00 0.00 0.00 52 1052.2
20260903224256 92 141 8.0 18.0 0.00 0.00 0.00 52 1052.0
20260903223751 93 112 15.0 19.0 0.00 0.00 0.00 52 1052.1
20260903223249 94 138 13.0 22.0 0.00 0.00 0.00 51 1052.0
20260903222745 97 126 9.0 21.0 0.00 0.00 0.00 47 1051.9
20260903222243 97 185 5.0 11.0 0.00 0.00 0.00 47 1051.9
20260903221739 97 133 8.0 14.0 0.00 0.00 0.00 46 1051.7
20260903221237 96 132 8.0 16.0 0.00 0.00 0.00 47 1051.9
20260903220736 98 147 7.0 9.0 0.00 0.00 0.00 45 1051.7
20260903220231 96 165 3.0 8.0 0.00 0.00 0.00 46 1051.8
20260903215724 96 157 10.0 15.0 0.00 0.00 0.00 46 1052.0
20260903215220 96 119 3.0 7.0 0.00 0.00 0.00 45 1051.9
20260903214717 96 115 6.0 11.0 0.00 0.00 0.00 46 1052.0
20260903214214 96 121 2.0 11.0 0.00 0.00 0.00 46 1052.1
20260903213708 96 115 3.0 10.0 0.00 0.00 0.00 45 1052.1
20260903213204 97 148 10.0 13.0 0.00 0.00 0.00 45 1052.1
20260903212700 97 131 5.0 10.0 0.00 0.00 0.00 45 1052.2
20260903212156 96 154 7.0 11.0 0.00 0.00 0.00 47 1052.3
20260903211655 96 140 6.0 10.0 0.00 0.00 0.00 46 1052.1
20260903211152 96 115 4.0 7.0 0.00 0.00 0.00 47 1052.4
20260903210648 96 132 9.0 15.0 0.00 0.00 0.00 48 1052.1
20260903210143 95 137 3.0 7.0 0.00 0.00 0.00 48 1052.3
20260903205643 97 141 13.0 16.0 0.00 0.00 0.00 46 1052.3
20260903205142 97 124 4.0 9.0 0.00 0.00 0.00 45 1052.3
20260903204638 97 153 1.0 8.0 0.00 0.00 0.00 44 1052.2
20260903204134 96 137 4.0 6.0 0.00 0.00 0.00 46 1052.6
20260903203630 96 197 2.0 6.0 0.00 0.00 0.00 46 1052.7
20260903203130 97 125 6.0 8.0 0.00 0.00 0.00 46 1052.9
20260903202624 96 192 3.0 4.0 0.00 0.00 0.00 47 1052.7
20260903202120 96 129 6.0 10.0 0.00 0.00 0.00 48 1052.9
20260903201614 97 176 6.0 9.0 0.00 0.00 0.00 47 1052.9
20260903201114 97 105 3.0 7.0 0.00 0.00 0.00 46 1052.9
20260903200609 97 179 5.0 7.0 0.00 0.00 0.00 47 1052.9
20260903200104 99 155 8.0 14.0 0.00 0.00 0.00 46 1053.0
20260903195600 98 246 5.0 9.0 0.00 0.00 0.00 45 1052.9
20260903195056 97 162 7.0 14.0 0.00 0.00 0.00 49 1053.1
20260903194551 98 66 2.0 7.0 0.00 0.00 0.00 46 1052.9
20260903194045 96 145 1.0 4.0 0.00 0.00 0.00 47 1053.1
20260903193542 98 103 3.0 4.0 0.00 0.00 0.00 46 1053.0
20260903193032 97 116 9.0 13.0 0.00 0.00 0.00 48 1053.4
20260903192528 95 137 2.0 3.0 0.00 0.00 0.00 47 1053.3
20260903192022 97 122 8.0 13.0 0.00 0.00 0.00 46 1053.3
20260903191519 98 208 4.0 7.0 0.00 0.00 0.00 45 1053.7
20260903191019 98 227 2.0 2.0 0.00 0.00 0.00 43 1053.5
20260903190513 98 236 6.0 9.0 0.00 0.00 0.00 44 1053.9
20260903190013 97 252 4.0 7.0 0.00 0.00 0.00 44 1053.8
20260903185509 98 86 4.0 6.0 0.00 0.00 0.00 44 1053.9
20260903185009 98 216 5.0 8.0 0.00 0.00 0.00 44 1054.1
20260903184500 98 255 2.0 8.0 0.00 0.00 0.00 44 1054.3
20260903183959 97 250 5.0 9.0 0.00 0.00 0.00 43 1054.3
20260903183453 97 112 4.0 7.0 0.00 0.00 0.00 46 1054.2
20260903182953 96 164 6.0 10.0 0.00 0.00 0.00 44 1054.3
20260903182452 96 168 4.0 9.0 0.00 0.00 0.00 46 1054.5
20260903181948 96 186 4.0 9.0 0.00 0.00 0.00 47 1054.7
20260903181441 98 156 6.0 8.0 0.00 0.00 0.00 46 1054.5
20260903180936 96 141 3.0 7.0 0.00 0.00 0.00 48 1054.7
20260903180431 95 192 7.0 13.0 0.00 0.00 0.00 47 1054.8
20260903175931 94 133 1.0 10.0 0.00 0.00 0.00 50 1054.7
20260903175425 96 234 5.0 11.0 0.00 0.00 0.00 45 1054.7
20260903174919 94 148 4.0 8.0 0.00 0.00 0.00 46 1054.7
20260903174415 95 258 4.0 7.0 0.00 0.00 0.00 45 1055.0
20260903173914 95 216 3.0 6.0 0.00 0.00 0.00 48 1055.0
20260903173409 95 170 9.0 11.0 0.00 0.00 0.00 50 1055.0
20260903172905 94 182 1.0 7.0 0.00 0.00 0.00 49 1055.0
20260903172405 93 216 6.0 10.0 0.00 0.00 0.00 50 1055.1
20260903171900 93 217 5.0 14.0 0.00 0.00 0.00 52 1055.2
20260903171355 93 236 4.0 10.0 0.00 0.00 0.00 53 1055.2
20260903170855 93 169 3.0 11.0 0.00 0.00 0.00 52 1055.4
20260903170350 93 162 4.0 8.0 0.00 0.00 0.00 54 1055.5
20260903165848 93 157 4.0 8.0 0.00 0.00 0.00 54 1055.4
20260903165343 92 183 7.0 10.0 0.00 0.00 0.00 56 1055.4
20260903164837 92 188 2.0 4.0 0.00 0.00 0.00 56 1055.4
20260903164333 91 195 4.0 13.0 0.00 0.00 0.00 57 1055.4
20260903163832 92 263 5.0 9.0 0.00 0.00 0.00 56 1055.5
20260903163329 91 164 5.0 10.0 0.00 0.00 0.00 57 1055.5
20260903162825 90 195 5.0 9.0 0.00 0.00 0.00 58 1055.7
20260903162321 90 160 4.0 13.0 0.00 0.00 0.00 56 1055.7
20260903161817 90 243 9.0 15.0 0.00 0.00 0.00 58 1055.5
20260903161312 92 238 9.0 14.0 0.00 0.00 0.00 56 1055.5
20260903160807 90 162 1.0 6.0 0.00 0.00 0.00 60 1055.5
20260903160301 89 196 4.0 9.0 0.00 0.00 0.00 61 1055.5
20260903155758 89 201 7.0 9.0 0.00 0.00 0.00 62 1055.6
20260903155254 89 202 3.0 8.0 0.00 0.00 0.00 62 1055.5